sat.trackr.live / text

‹ back to catalog

UNKNOWN

NORAD 89146

UNKNOWN UNKNOWN UNKNOWN

§ Identity

Operator
Country
Launch date
Launch site
Launch vehicle
Mass (kg)
RCS (m²)

External: N2YO · Heavens-Above

§ Orbital elements

Epoch: 2026-09-16T06:42:34.290720Z

Period
98.28 min
Inclination
98.2593°
Eccentricity
0.0088495
Mean motion
14.65179120 rev/d
Perigee alt
614.1 km
Apogee alt
738.9 km
Semi-major
7,054.6 km
B*
4.5320e-4
RAAN
193.7390°
Arg perigee
265.4791°
Mean anomaly
93.6298°
Rev number
66,949

§ Raw data

UNKNOWN1 89146U          26259.27956355  .00002528  00000+0  45320-3 0  99972 89146  98.2593 193.7390 0088495 265.4791  93.6298 14.65179120669493

JSON: /api/v1/satellites/89146 · /tle

For live sub-satellite position, see the globe view (requires WebGL).

§ Visibility from observer

Set your observer location to see the next 7 days of passes ≥ 10°. The values pass through the URL so the page stays shareable.

No JS? Fill the form by hand. The geolocation button needs JavaScript.